Weather in Yershovka

Russia / Udmurt Republic     56°27′22″N   53°52′42″E
temp.,
°C
wind,
m/s
gust,
m/s
humid.,
%
clouds,
%
prec.,
mm/h
press.,
hPa
HPBL,
m
23 april, fri
fri2301:00+4s489157 0.0 1028448
04:00+3s389571 0.0 1028356
07:00+4s3690100 0.0 1029433
10:00+5s3587100 0.0 1029486
13:00+9sse346835 0.0 1028779
16:00+11ese3460100 0.0 10271080
19:00+9ese3669100 0.0 1026403
22:00+6e3885100 0.0 1025194
24 april, sat
sat2401:00+6e3784100 0.0 1023291
04:00+6ese3793100 0.2 1021321
07:00+6e3794100 0.6 1020331
10:00+7e3792100 1.0 1018480
13:00+7ese3793100 0.6 1016894
16:00+7ese3692100 1.4 10151012
19:00+6se4794100 1.0 1014880
22:00+6se3895100 1.6 1013472
25 april, sun
sun2501:00+5se3795100 0.1 1012804
04:00+5se3895100 0.1 1010442
07:00+6se41092100 0.0 1008531
10:00+6se51293100 3.0 10061231
13:00+5sw5119395 2.3 1007900
16:00+9sw71160100 3.3 10091809
19:00+7sw41059100 0.4 1009566
22:00+5wsw51179100 0.8 1011774
26 april, mon
mon2601:00+3sw4129079 0.0 1013471
04:00+4sw5128272 0.1 1014670
07:00+4sw411805 0.0 1016591
10:00+8sw51154100 0.0 10171495
13:00+9sw6124996 0.1 10162277
16:00+11wsw61247100 0.3 10152086
19:00+9wsw395780 0.1 1015433
22:00+5s1172100 0.1 101410
27 april, tue
tue2701:00+4ne1180100 0.0 101317
04:00+4e2480100 0.0 101172
07:00+6e2373100 0.0 1009159
10:00+10e1149100 0.0 1008801
13:00+13nw114099 0.0 10061935
16:00+12ne114791 0.3 10061341
19:00+10se2357100 0.3 100577
22:00+8sse4126561 0.6 1004461